DateTimeUTC,F1_A11,F1_S11,BsB_S11,BsG_S11,BsR_S11,BbsB_S11,BbsG_S11,BbsR_S11,BaB_A11,BaG_A11,BaR_A11,Tu_S11,T_S11,Uu_S11,U_S11,P_S11,T1_A11
2021-07-20T23:00:00Z,00000200,20000000,,,,,,,0000.29,0000.06,0000.37,18.9,25.6,07.2,04.8,0669.6,31.1
2021-07-20T23:01:00Z,00000200,20000000,,,,,,,-000.25,0000.04,-000.22,18.9,25.6,07.2,04.8,0669.6,31.1
2021-07-20T23:02:00Z,00000200,20000000,,,,,,,-000.05,0000.03,-000.14,18.9,25.6,07.2,04.8,0669.6,31.1
2021-07-20T23:03:00Z,00000200,60000000,,,,,,,0000.03,-000.07,-000.07,18.9,25.6,07.2,04.8,0669.6,31.1
2021-07-20T23:04:00Z,00000200,40000000,0000.66,0000.68,0000.80,0000.63,0000.12,0000.11,0000.08,0000.40,0000.27,19.0,25.4,07.3,05.0,0670.5,31.1
2021-07-20T23:05:00Z,00000200,00000000,0000.87,0000.44,0000.57,-000.41,-000.04,0000.30,0000.15,-000.30,0000.08,19.0,25.4,07.4,05.0,0670.6,31.1
2021-07-20T23:06:00Z,00000200,00000000,0000.69,0000.85,0000.78,-000.01,-000.19,0000.09,0000.24,-000.00,-000.18,19.0,25.3,07.6,05.1,0670.6,31.1
2021-07-20T23:07:00Z,00000200,00000000,0000.73,0000.76,0000.80,-000.05,0000.13,0000.41,-000.17,0000.11,0000.08,19.0,25.3,07.5,05.1,0670.6,31.1
2021-07-20T23:08:00Z,00000200,00000000,0000.88,0000.59,0000.79,0000.20,0000.03,0000.28,-000.31,0000.03,-000.08,19.0,25.3,07.5,05.1,0670.6,31.1
2021-07-20T23:09:00Z,00000200,00000000,0000.79,0000.74,0000.83,0000.16,-000.03,0000.24,0000.15,0000.04,0000.06,19.0,25.3,07.5,05.1,0670.6,31.1
2021-07-20T23:10:00Z,00000200,00000000,0000.95,0000.59,0000.97,-000.11,-000.27,0000.29,-000.07,-000.20,0000.03,19.0,25.3,07.5,05.1,0670.6,31.1
2021-07-20T23:11:00Z,00000200,00000000,0000.49,0000.66,0000.79,0000.26,-000.01,-000.11,0000.14,-000.22,-000.30,19.0,25.3,07.4,05.1,0670.6,31.1
2021-07-20T23:12:00Z,00000200,00000000,0000.61,0000.63,0000.63,-000.05,-000.31,0000.18,-000.50,0000.13,0000.22,19.0,25.3,07.3,05.0,0670.6,31.1
2021-07-20T23:13:00Z,00000200,00000000,0000.88,0000.85,0000.83,-000.11,-000.23,0000.39,0000.18,0000.12,-000.01,19.0,25.3,07.5,05.1,0670.6,31.1
2021-07-20T23:14:00Z,00000200,00000000,0000.68,0000.64,0000.42,0000.05,0000.08,-000.06,0000.26,0000.09,-000.22,19.0,25.3,07.3,05.0,0670.6,31.1
2021-07-20T23:15:00Z,00000200,00000000,0001.14,0000.46,0000.53,-000.64,-000.19,0000.27,-000.26,-000.46,0000.52,19.0,25.3,07.2,04.9,0670.6,31.1
2021-07-20T23:16:00Z,00000200,00000000,0001.27,0000.50,0000.56,0000.41,0000.17,0000.02,0000.24,0000.19,-000.29,19.1,25.3,07.2,04.9,0670.5,31.1
2021-07-20T23:17:00Z,00000200,00000000,0001.17,0000.60,0000.76,0000.33,0000.06,0000.09,-000.15,0000.04,0000.27,19.1,25.3,07.2,04.9,0670.5,31.1
2021-07-20T23:18:00Z,00000200,00000000,0000.82,0000.54,0000.87,-000.56,0000.28,0000.40,0000.22,0000.09,0000.09,19.1,25.3,07.3,05.0,0670.5,31.1
2021-07-20T23:19:00Z,00000200,00000000,0000.78,0000.74,0000.74,0000.59,0000.17,0000.02,0000.00,0000.11,-000.05,19.1,25.3,07.4,05.0,0670.5,31.1
2021-07-20T23:20:00Z,00000200,00000000,0000.05,0000.61,0000.63,-000.29,-000.09,0000.20,-000.23,-000.05,-000.14,19.1,25.3,07.3,05.0,0670.5,31.1
2021-07-20T23:21:00Z,00000200,00000000,0000.17,0000.80,0001.00,-000.17,0000.13,0000.35,0000.42,0000.16,0000.41,19.1,25.3,07.4,05.0,0670.5,31.1
2021-07-20T23:22:00Z,00000200,00000000,0001.18,0000.82,0000.70,0000.23,0000.03,0000.26,-000.09,-000.04,-000.08,19.1,25.3,07.4,05.1,0670.6,31.1
2021-07-20T23:23:00Z,00000200,00000000,0000.91,0000.90,0000.46,0000.24,0000.24,-000.08,0000.07,-000.22,0000.06,19.1,25.3,07.4,05.1,0670.5,31.1
2021-07-20T23:24:00Z,00000200,00000000,0000.70,0000.62,0000.83,0000.18,-000.13,0000.27,-000.26,0000.34,-000.20,19.1,25.3,07.4,05.1,0670.5,31.1
2021-07-20T23:25:00Z,00000200,00000000,0001.07,0000.80,0000.38,-000.26,0000.18,0000.25,-000.11,-000.17,-000.14,19.1,25.3,07.3,05.0,0670.5,31.1
2021-07-20T23:26:00Z,00000200,00000000,0000.76,0000.41,0000.48,0000.19,-000.05,0000.22,0000.25,0000.01,0000.03,19.0,25.3,07.4,05.0,0670.5,31.1
2021-07-20T23:27:00Z,00000200,00000000,0000.57,0000.43,0000.32,-000.12,0000.18,0000.32,-000.11,0000.11,0000.42,19.0,25.3,07.3,05.0,0670.5,31.1
2021-07-20T23:28:00Z,00000200,00000000,0000.23,0000.36,0000.54,0000.07,-000.10,0000.03,-000.41,-000.31,-000.20,19.0,25.3,07.4,05.1,0670.5,31.1
2021-07-20T23:29:00Z,00000200,00000000,0000.95,0000.65,0000.46,-000.23,-000.21,0000.17,0000.20,0000.43,0000.05,19.0,25.3,07.4,05.1,0670.5,31.1
2021-07-20T23:30:00Z,00000200,00000000,0001.36,0000.40,0000.56,0000.86,-000.16,0000.42,0000.18,-000.19,-000.04,19.0,25.3,07.4,05.1,0670.5,31.1
2021-07-20T23:31:00Z,00000200,00000000,0000.86,0000.55,0000.64,0000.17,-000.23,0000.19,-000.04,0000.26,0000.18,19.0,25.3,07.4,05.1,0670.5,31.1
2021-07-20T23:32:00Z,00000200,00000000,0000.89,0000.52,0000.60,-000.05,0000.11,0000.49,-000.20,-000.07,0000.08,19.0,25.3,07.4,05.1,0670.5,31.1
2021-07-20T23:33:00Z,00000200,00000000,0000.10,0000.40,0000.82,0000.04,-000.18,-000.03,0000.55,-000.03,0000.09,19.0,25.3,07.4,05.1,0670.5,31.1
2021-07-20T23:34:00Z,00000200,00000000,0000.21,0000.40,0000.51,0000.06,0000.33,-000.06,0000.12,-000.02,0000.07,19.0,25.3,07.5,05.1,0670.5,31.1
2021-07-20T23:35:00Z,00000200,00000000,0001.40,0000.72,0000.50,0000.56,-000.24,0000.70,-000.06,0000.17,-000.11,19.0,25.3,07.6,05.2,0670.5,31.1
2021-07-20T23:36:00Z,00000200,00000000,0000.78,0000.58,0000.72,0000.36,-000.05,0000.41,0000.21,0000.23,0000.09,19.0,25.2,07.5,05.1,0670.5,31.1
2021-07-20T23:37:00Z,00000200,00000000,0000.29,0000.42,0000.71,-000.09,-000.16,0000.35,-000.10,-000.12,0000.40,19.0,25.2,07.7,05.2,0670.5,31.1
2021-07-20T23:38:00Z,00000200,00000000,0001.25,0000.50,0000.89,0000.22,0000.22,0000.44,0000.05,0000.26,-000.03,19.0,25.3,07.8,05.3,0670.4,31.1
2021-07-20T23:39:00Z,00000200,00000000,0001.25,0000.43,0000.55,-000.15,-000.32,0000.09,-000.00,-000.01,0000.00,19.0,25.2,07.8,05.3,0670.4,31.1
2021-07-20T23:40:00Z,00000200,00000000,0000.59,0000.82,0000.53,-000.06,0000.10,-000.06,0000.27,-000.02,-000.01,19.0,25.2,07.8,05.3,0670.4,31.1
2021-07-20T23:41:00Z,00000200,00000000,0000.42,0000.50,0000.57,0000.25,-000.01,0000.12,0000.12,-000.05,0000.15,19.0,25.2,07.7,05.3,0670.3,31.1
2021-07-20T23:42:00Z,00000200,00000000,0001.01,0000.73,0000.55,0000.06,-000.17,0000.26,-000.50,-000.07,-000.41,18.9,25.2,07.7,05.2,0670.3,31.1
2021-07-20T23:43:00Z,00000200,00000000,0001.18,0000.35,0000.22,-000.03,0000.01,-000.12,-000.09,0000.02,0000.14,18.9,25.2,07.6,05.2,0670.3,31.1
2021-07-20T23:44:00Z,00000200,00000000,0001.04,0000.48,0000.70,-000.42,0000.18,0000.36,0000.03,-000.27,-000.14,18.9,25.2,07.5,05.2,0670.3,31.1
2021-07-20T23:45:00Z,00000200,00000000,0000.29,0000.32,0000.53,0000.67,0000.10,0000.36,-000.22,-000.14,-000.35,19.0,25.2,07.3,05.0,0670.3,31.1
2021-07-20T23:46:00Z,00000200,00000000,0000.94,0000.60,0000.70,0000.36,-000.05,0000.28,-000.25,-000.01,0000.29,19.0,25.2,07.3,05.0,0670.3,31.1
2021-07-20T23:47:00Z,00000200,00000000,0000.43,0000.41,0000.54,-000.10,0000.19,0000.31,0000.32,-000.23,0000.07,19.0,25.3,07.1,04.9,0670.3,31.1
2021-07-20T23:48:00Z,00000200,00000000,0000.59,0000.47,0000.50,0000.18,-000.10,0000.25,-000.36,0000.13,-000.04,19.0,25.3,07.2,04.9,0670.3,31.1
2021-07-20T23:49:00Z,00000200,00000000,0001.28,0000.55,0000.95,-000.31,0000.24,0000.24,0000.33,0000.24,0000.08,19.0,25.3,07.1,04.9,0670.4,31.1
2021-07-20T23:50:00Z,00000200,00000000,0000.81,0000.77,0000.57,0000.35,-000.04,0000.24,-000.33,-000.02,-000.15,19.0,25.2,07.2,04.9,0670.4,31.1
2021-07-20T23:51:00Z,00000200,00000000,0001.00,0000.70,0000.66,0000.04,0000.18,0000.18,0000.28,0000.07,0000.37,19.0,25.2,07.2,04.9,0670.3,31.1
2021-07-20T23:52:00Z,00000200,00000000,0000.77,0000.79,0000.71,-000.18,-000.10,0000.15,-000.25,-000.13,-000.18,19.0,25.2,07.3,05.0,0670.3,31.1
2021-07-20T23:53:00Z,00000200,00000000,0001.30,0000.61,0000.70,0000.63,0000.11,0000.25,0000.39,-000.01,0000.02,19.0,25.2,07.3,05.0,0670.4,31.1
2021-07-20T23:54:00Z,00000200,00000000,0001.41,0000.70,0000.55,0000.15,0000.01,0000.56,0000.10,0000.13,0000.27,19.0,25.2,07.4,05.0,0670.4,31.1
2021-07-20T23:55:00Z,00000200,00000000,0000.50,0000.84,0000.65,0000.30,0000.05,0000.30,-000.31,-000.05,-000.21,19.0,25.2,07.3,05.0,0670.4,31.1
2021-07-20T23:56:00Z,00000200,00000000,0001.27,0000.87,0000.67,-000.45,-000.18,0000.11,0000.36,-000.11,-000.04,18.9,25.2,07.3,05.0,0670.4,31.1
2021-07-20T23:57:00Z,00000200,40000000,,,,,,,-000.13,0000.05,0000.18,19.0,25.3,07.3,05.0,0670.4,31.1
2021-07-20T23:58:00Z,00000200,60000000,,,,,,,-000.24,0000.09,0000.10,18.8,25.4,07.4,04.9,0669.4,31.1
2021-07-20T23:59:00Z,00000200,20000000,,,,,,,0000.12,0000.01,-000.17,18.7,25.5,07.3,04.8,0669.4,31.1
